User: anonymous   Login
Location: ?
(35.3544°N, 139.4507°E)
Time: 17:26:04
(UTC+00:00)
Language:

Cosmos 1110 Rocket - Orbit

View from above orbital plane
View from above orbital plane
View from above satellite
View from above satellite

Ground track
Ground track

The orbit data is extracted from the following two-line orbital elements,

1 11427U 79060B   24277.17587691  .00001496  00000-0  49923-3 0  9993
2 11427  74.0166 156.7352 0019213  15.4799 344.6938 14.38301919370872
Epoch (UTC): 03 October 2024 04:13:15
Eccentricity: 0.0019213
inclination: 74.0166°
perigee height: 750 km
apogee height: 778 km
right ascension of ascending node: 156.7352°
argument of perigee: 15.4799°
revolutions per day: 14.38301919
mean anomaly at epoch: 344.6938°
orbit number at epoch: 37087

The dashed part of the orbit path shows where the satellite is in the earth's shadow,  

DLR